Weather History for KBCB - February, 2013

Change the Weather History Date:

Sunday, February 17, 2013

  Actual Average Record
Temperature  
Mean Temperature 19 °F 34 °F  
Max Temperature 25 °F 45 °F 70 °F (1976)
Min Temperature 13 °F 24 °F -4 °F (1973)
Degree Days  
Heating Degree Days 46 30  
Month to date heating degree days 544 540  
Since 1 July heating degree days 3525 3727  
Cooling Degree Days 0 0  
Month to date cooling degree days 0 0  
Year to date cooling degree days 0 0  
Moisture  
Dew Point 11 °F    
Average Humidity 64    
Maximum Humidity 77    
Minimum Humidity 50    
Precipitation  
Precipitation T in 0.10 in 0.58 in (1974)
Month to date precipitation 0.64 1.72  
Year to date precipitation 8.38 4.80  
Snow  
Snow T in - - ()
Month to date snowfall 4.3  
Since 1 July snowfall 16.0  
Snow Depth 0.00 in    
Sea Level Pressure  
Sea Level Pressure 30.03 in    
Wind  
Wind Speed 13 mph (WNW)    
Max Wind Speed 20 mph    
Max Gust Speed 35 mph    
Visibility 9 miles    
Events Snow    
T = Trace of Precipitation, MM = Missing Value Source: NWS Daily Summary

Daily Weather History Graph

Daily Weather History Graph

Search for Another Location

Airport or City:

Trip Planner

Search our weather history database for the weather conditions in past years. The results will help you decide how hot, cold, wet, or windy it might be!

Date:

Astronomy

Feb. 17, 2013 Rise Set
Actual Time 7:07 AM EST 6:03 PM EST
Civil Twilight 6:41 AM EST 6:30 PM EST
Nautical Twilight 6:10 AM EST 7:00 PM EST
Astronomical Twilight 5:40 AM EST 7:31 PM EST
Moon 11:10 AM EST (2/17) 12:47 AM EST (2/17)
Length of Visible Light 11h 49m
Length of Day
10h 55m
Waxing Crescent, 49% of the Moon is Illuminated
Feb 17
Waxing Crescent
Feb 17
First Quarter
Feb 25
Full
Mar 4
Last Quarter
Mar 11
New

Hourly Weather History & Observations

Time (EST) Temp. Windchill Dew Point Humidity Pressure Visibility Wind Dir Wind Speed Gust Speed Precip Events Conditions
12:37 AM 24.8 °F 12.4 °F 17.6 °F 74% 29.89 in 10.0 mi NW 15.0 mph 23.0 mph N/A   Mostly Cloudy
12:57 AM 24.8 °F 14.0 °F 17.6 °F 74% 29.89 in 10.0 mi WNW 11.5 mph 19.6 mph N/A   Overcast
1:36 AM 23.0 °F 12.4 °F 15.8 °F 74% 29.90 in 10.0 mi WNW 10.4 mph 20.7 mph N/A   Overcast
1:56 AM 23.0 °F 8.7 °F 15.8 °F 74% 29.90 in 5.0 mi NW 18.4 mph 25.3 mph N/A Snow Light Snow
2:16 AM 21.2 °F 9.5 °F 15.8 °F 80% 29.90 in 10.0 mi NW 11.5 mph 26.5 mph N/A Snow Light Snow
2:37 AM 21.2 °F 7.3 °F 14.0 °F 74% 29.90 in 10.0 mi WNW 16.1 mph 26.5 mph N/A   Mostly Cloudy
3:36 AM 21.2 °F 10.1 °F 12.2 °F 68% 29.90 in 10.0 mi WNW 10.4 mph 20.7 mph N/A   Mostly Cloudy
3:56 AM 19.4 °F 7.9 °F 14.0 °F 80% 29.91 in 7.0 mi WNW 10.4 mph 20.7 mph N/A Snow Light Snow
4:16 AM 19.4 °F 4.5 °F 14.0 °F 80% 29.91 in 7.0 mi WNW 17.3 mph 20.7 mph N/A Snow Light Snow
4:37 AM 19.4 °F 5.5 °F 15.8 °F 86% 29.92 in 4.0 mi NW 15.0 mph 24.2 mph N/A Snow Light Snow
4:56 AM 19.4 °F 4.5 °F 12.2 °F 74% 29.92 in 5.0 mi WNW 17.3 mph 23.0 mph N/A Snow Light Snow
5:21 AM 17.6 °F 2.7 °F 12.2 °F 79% 29.93 in 5.0 mi WNW 16.1 mph 28.8 mph N/A Snow Light Snow
5:38 AM 17.6 °F 3.7 °F 10.4 °F 73% 29.94 in 5.0 mi WNW 13.8 mph 25.3 mph N/A Snow Light Snow
5:58 AM 17.6 °F 1.3 °F 6.8 °F 63% 29.95 in 10.0 mi WNW 19.6 mph 33.4 mph N/A   Scattered Clouds
6:16 AM 17.6 °F 5.0 °F 6.8 °F 63% 29.95 in 10.0 mi WNW 11.5 mph 23.0 mph N/A   Scattered Clouds
6:56 AM 17.6 °F 3.7 °F 5.0 °F 58% 29.97 in 10.0 mi West 13.8 mph 23.0 mph N/A   Scattered Clouds
7:57 AM 17.6 °F 2.7 °F 6.8 °F 63% 29.99 in 10.0 mi WNW 16.1 mph 24.2 mph N/A   Scattered Clouds
8:56 AM 17.6 °F 1.7 °F 6.8 °F 63% 30.01 in 10.0 mi WNW 18.4 mph 34.5 mph N/A   Mostly Cloudy
9:17 AM 19.4 °F 5.5 °F 6.8 °F 58% 30.02 in 10.0 mi WNW 15.0 mph 26.5 mph N/A   Scattered Clouds
9:37 AM 19.4 °F 5.5 °F 8.6 °F 63% 30.02 in 10.0 mi WNW 15.0 mph 24.2 mph N/A   Scattered Clouds
10:16 AM 21.2 °F 6.0 °F 8.6 °F 58% 30.04 in 10.0 mi WNW 19.6 mph 29.9 mph N/A   Overcast
10:37 AM 21.2 °F 7.3 °F 8.6 °F 58% 30.04 in 10.0 mi WNW 16.1 mph 28.8 mph N/A   Mostly Cloudy
10:56 AM 21.2 °F 7.3 °F 8.6 °F 58% 30.05 in 10.0 mi WNW 16.1 mph 25.3 mph N/A   Mostly Cloudy
12:16 PM 21.2 °F 10.1 °F 8.6 °F 58% 30.06 in 10.0 mi WNW 10.4 mph 17.3 mph N/A   Mostly Cloudy
12:36 PM 26.6 °F 13.8 °F 10.4 °F 51% 30.05 in 10.0 mi WNW 17.3 mph 23.0 mph N/A   Overcast
12:56 PM 24.8 °F 13.4 °F 10.4 °F 54% 30.05 in 10.0 mi WNW 12.7 mph 20.7 mph N/A   Overcast
1:16 PM 23.0 °F 9.2 °F 10.4 °F 59% 30.05 in 10.0 mi NW 17.3 mph 24.2 mph N/A   Overcast
2:02 PM 26.6 °F 14.7 °F 10.4 °F 51% 30.04 in 10.0 mi NW 15.0 mph 20.7 mph N/A   Mostly Cloudy
2:36 PM 26.6 °F 13.1 °F 8.6 °F 47% 30.05 in 10.0 mi WNW 19.6 mph 31.1 mph N/A   Scattered Clouds
2:57 PM 26.6 °F 16.8 °F 10.4 °F 51% 30.05 in 10.0 mi West 10.4 mph 27.6 mph N/A   Scattered Clouds
3:16 PM 28.4 °F 18.5 °F 10.4 °F 47% 30.05 in 10.0 mi West 11.5 mph 17.3 mph N/A   Mostly Cloudy
3:37 PM 28.4 °F 17.5 °F 10.4 °F 47% 30.05 in 10.0 mi West 13.8 mph 23.0 mph N/A   Mostly Cloudy
3:57 PM 26.6 °F 14.3 °F 10.4 °F 51% 30.06 in 10.0 mi NW 16.1 mph 23.0 mph N/A   Scattered Clouds
4:18 PM 28.4 °F 17.5 °F 10.4 °F 47% 30.07 in 10.0 mi West 13.8 mph 24.2 mph N/A   Mostly Cloudy
4:36 PM 26.6 °F 16.2 °F 10.4 °F 51% 30.07 in 10.0 mi West 11.5 mph 19.6 mph N/A   Mostly Cloudy
4:57 PM 26.6 °F 15.2 °F 10.4 °F 51% 30.08 in 10.0 mi WNW 13.8 mph 20.7 mph N/A   Scattered Clouds
5:17 PM 26.6 °F 15.7 °F 8.6 °F 47% 30.08 in 10.0 mi WNW 12.7 mph 18.4 mph N/A   Clear
5:37 PM 26.6 °F 16.2 °F 10.4 °F 51% 30.09 in 10.0 mi WNW 11.5 mph 18.4 mph N/A   Clear
6:36 PM 24.8 °F 15.3 °F 10.4 °F 54% 30.11 in 10.0 mi West 9.2 mph - N/A   Clear
6:57 PM 24.8 °F 15.3 °F 10.4 °F 54% 30.12 in 10.0 mi West 9.2 mph - N/A   Clear
7:37 PM 24.8 °F 16.1 °F 10.4 °F 54% 30.12 in 10.0 mi West 8.1 mph - N/A   Clear
7:57 PM 24.8 °F 16.1 °F 10.4 °F 54% 30.12 in 10.0 mi West 8.1 mph - N/A   Clear
8:17 PM 24.8 °F 14.6 °F 10.4 °F 54% 30.13 in 10.0 mi West 10.4 mph 16.1 mph N/A   Clear
8:37 PM 24.8 °F 15.3 °F 10.4 °F 54% 30.13 in 10.0 mi West 9.2 mph - N/A   Clear
8:57 PM 23.0 °F 13.9 °F 10.4 °F 59% 30.13 in 10.0 mi West 8.1 mph - N/A   Clear
9:36 PM 23.0 °F 13.9 °F 10.4 °F 59% 30.14 in 10.0 mi West 8.1 mph 17.3 mph N/A   Clear
9:56 PM 23.0 °F 11.7 °F 10.4 °F 59% 30.15 in 10.0 mi West 11.5 mph 19.6 mph N/A   Clear
10:56 PM 23.0 °F 14.7 °F 8.6 °F 54% 30.15 in 10.0 mi WNW 6.9 mph - N/A   Clear
11:16 PM 23.0 °F 14.7 °F 8.6 °F 54% 30.16 in 10.0 mi WNW 6.9 mph 16.1 mph N/A   Clear
11:56 PM 23.0 °F 14.7 °F 8.6 °F 54% 30.18 in 10.0 mi West 6.9 mph - N/A   Clear